OBJECT G, 69676

Orbit data source: Space-Track

You're viewing an Uncataloged Satellite

Recently launched and/or uncataloged satellites may have evolving metadata. Metadata may include but not limited to: Owner, Maufacturer, Bus, Motor, and Mission.

OBJECT G, 69676 is a satellite in SSO that was launched on Fri, 12 Jun 2026 UTC via an FALCON 9 launch vehicle from the Tanegashima Space Center (TNSTA). Unknown objects in Earth's orbit typically refer to objects detected orbiting the Earth but have not yet been identified or cataloged. These objects could be anything from previously untracked satellites, spent rocket stages, debris from satellite collisions, or even natural meteoroids temporarily captured by Earth's gravity.

Loading next visibility...
Identifier
69676, 2026-132G
Orbit
SSO
Country
Flag of TBDTBD
Related business
Manufacturer
JAXA
Mission
Spacecraft
Bus & Motor
Unknown
Mass
Unknown
Launch date (UTC)
2026-06-12 (1 month ago)
Launch vehicle
FALCON 9
Launch site
Tanegashima Space Center (TNSTA)
Object type
Unknown
Shape & HBR
Unknown shape, 1.1 m
Radar Cross Section
Medium (>0.1 m² and <1 m²)

Expand to show TLE details & history
Last TLE update: 3 weeks ago

TLE from 3 weeks ago
0 OBJECT G
1 69676U 26132G   26189.43473603  .00006559  00000-0  42983-3 0  9998
2 69676  97.6875 253.0023 0024592 224.5551 135.3700 15.07805957  3974
Epoch: 2026-07-08T10:26Z
TLE epoch observation values (Epoch: 2026-07-08T10:26:01.192Z)
Latitude
Longitude
170.10627°
Altitude
558.107 km
Speed
7.576 km/s
True Right ascension
16h 52m 00s
True Declination
0° 00' 00"
Sunlit
Object was in full shadow at epoch
Visualization orbit readout
Latitude
Unknown
Longitude
Unknown
Altitude
Unknown
Speed
Unknown
Apparent Right ascension
Unknown
Apparent Declination
Unknown
Sunlit
N/A
Visualization observer readout
Local Sidereal Time
21:09:43
Azimuth
Unknown
Elevation
Unknown
Doppler factor
Unknown
Orbital elements
Apogee altitude
556.913 km
Perigee altitude
522.887 km
Semi-major axis
6,918.037 km
Eccentricity
0.00246
Inclination
97.6875°
RAAN
253.0023°
Arg. of periapsis
224.5551°
True anomaly
135.56754°
Mean anomaly
135.37°
Eccentric anomaly
135.46881°
Mean motion
3.77198 °/min
Orbital period
95.44 mins
BSTAR
0.00042983
Loading maneuver chart data...
Computing Atmospheric mass density...
Loading historical data...
Loading historical data...
Loading historical data...
Loading historical data...
Loading historical data...
Loading historical data...
Loading historical data...
Other satellites on launch #132 in the year 2026 (2026-06-12 UTC)

Documentation

Showing up to 5 results
|